Weather History for KFOA - September, 2013

Change the Weather History Date:

Monday, September 9, 2013

  Actual Average (KEVV) Record (KEVV)
Temperature  
Mean Temperature 82 °F 72 °F  
Max Temperature 94 °F 84 °F 100 °F (1939)
Min Temperature 69 °F 60 °F 44 °F (1986)
Degree Days  
Heating Degree Days 0 0  
Month to date heating degree days 0  
Since 1 July heating degree days 1  
Cooling Degree Days 16 7  
Month to date cooling degree days 76  
Year to date cooling degree days 1275  
Growing Degree Days 32 (Base 50)    
Moisture  
Dew Point 71 °F    
Average Humidity 73    
Maximum Humidity 100    
Minimum Humidity 42    
Precipitation  
Precipitation 0.00 in 0.11 in 1.43 in (1909)
Month to date precipitation 0.88  
Year to date precipitation 31.80  
Snow  
Snow 0.00 in 0.00 in 0.00 in ()
Month to date snowfall 0.0  
Since 1 July snowfall 0.0  
Since 1 September snowfall 0.0  
Snow Depth -    
Sea Level Pressure  
Sea Level Pressure 29.97 in    
Wind  
Wind Speed 4 mph (SSW)    
Max Wind Speed 10 mph    
Max Gust Speed 16 mph    
Visibility 8 miles    
Events Rain , Thunderstorm    
T = Trace of Precipitation, MM = Missing Value Source: NWS Daily Summary

Daily Weather History Graph

Daily Weather History Graph

Search for Another Location

Airport or City:

Trip Planner

Search our weather history database for the weather conditions in past years. The results will help you decide how hot, cold, wet, or windy it might be!

Date:

Astronomy

Sep. 09, 2013 Rise Set
Actual Time 6:30 AM CDT 7:11 PM CDT
Civil Twilight 6:03 AM CDT 7:37 PM CDT
Nautical Twilight 5:31 AM CDT 8:09 PM CDT
Astronomical Twilight 4:59 AM CDT 8:42 PM CDT
Moon 10:48 AM CDT (9/9) 9:31 PM CDT (9/9)
Length of Visible Light 13h 34m
Length of Day
12h 40m
Waxing Crescent, 19% of the Moon is Illuminated
Sep 9
Waxing Crescent
Sep 12
First Quarter
Sep 19
Full
Sep 26
Last Quarter
Oct 4
New

Hourly Weather History & Observations

Time (CDT) Temp. Heat Index Dew Point Humidity Pressure Visibility Wind Dir Wind Speed Gust Speed Precip Events Conditions
12:15 AM 71.2 °F - 71.2 °F 100% 29.97 in 5.0 mi Calm Calm - N/A   Clear
12:35 AM 70.7 °F - 70.7 °F 100% 29.97 in 4.0 mi Calm Calm - N/A   Clear
12:55 AM 70.3 °F - 70.3 °F 100% 29.97 in 3.0 mi Calm Calm - N/A   Clear
1:15 AM 70.3 °F - 70.3 °F 100% 29.97 in 4.0 mi Calm Calm - N/A   Clear
1:35 AM 71.1 °F - 71.1 °F 100% 29.96 in 4.0 mi SE 3.5 mph - N/A   Clear
1:55 AM 72.1 °F - 72.1 °F 100% 29.97 in 4.0 mi Calm Calm - N/A   Clear
2:15 AM 72.1 °F - 72.1 °F 100% 29.96 in 4.0 mi Calm Calm - N/A   Clear
2:35 AM 72.1 °F - 72.1 °F 100% 29.96 in 4.0 mi SE 4.6 mph - N/A   Clear
2:55 AM 72.1 °F - 72.1 °F 100% 29.96 in 4.0 mi Calm Calm - N/A   Clear
3:15 AM 71.1 °F - 71.1 °F 100% 29.96 in 3.0 mi Calm Calm - N/A   Clear
3:35 AM 70.9 °F - 70.9 °F 100% 29.96 in 3.0 mi SE 3.5 mph - N/A   Clear
3:55 AM 71.2 °F - 71.2 °F 100% 29.97 in 4.0 mi Calm Calm - N/A   Clear
4:15 AM 70.7 °F - 70.7 °F 100% 29.97 in 3.0 mi Calm Calm - N/A   Clear
4:35 AM 70.2 °F - 70.2 °F 100% 29.97 in 3.0 mi Calm Calm - N/A   Clear
4:55 AM 70.3 °F - 70.3 °F 100% 29.97 in 3.0 mi Calm Calm - N/A   Clear
5:15 AM 69.8 °F - 69.8 °F 100% 29.97 in 2.5 mi Calm Calm - N/A Thunderstorm Clear
5:35 AM 69.4 °F - 69.4 °F 100% 29.97 in 2.5 mi Calm Calm - N/A   Clear
5:55 AM 69.8 °F - 69.8 °F 100% 29.97 in 2.5 mi SSE 3.5 mph - N/A Thunderstorm Clear
6:15 AM 69.8 °F - 69.8 °F 100% 29.98 in 2.5 mi Calm Calm - N/A   Clear
6:35 AM 70.2 °F - 70.2 °F 100% 29.97 in 2.0 mi South 3.5 mph - N/A   Clear
6:55 AM 70.9 °F - 70.9 °F 100% 29.99 in 2.5 mi Calm Calm - N/A   Clear
7:15 AM 72.1 °F - 72.1 °F 100% 30.00 in 3.0 mi West 5.8 mph - N/A Thunderstorm Clear
7:35 AM 75.2 °F - 73.2 °F 94% 29.98 in 7.0 mi SSW 6.9 mph - N/A Rain , Thunderstorm Light Thunderstorms and Rain
7:55 AM 76.6 °F - 73.2 °F 89% 29.98 in 7.0 mi SSW 8.1 mph - N/A   Clear
8:15 AM 77.4 °F - 73.4 °F 88% 29.98 in 7.0 mi South 8.1 mph - N/A   Clear
8:35 AM 79.2 °F - 73.8 °F 83% 29.99 in 10.0 mi South 8.1 mph - N/A   Clear
8:55 AM 80.1 °F 84.0 °F 72.3 °F 77% 29.99 in 10.0 mi SSW 6.9 mph - N/A   Clear
9:15 AM 79.3 °F - 72.5 °F 79% 29.99 in 10.0 mi SSW 5.8 mph - N/A   Clear
9:35 AM 80.8 °F 85.2 °F 72.5 °F 76% 30.00 in 10.0 mi South 6.9 mph - N/A   Clear
9:55 AM 82.2 °F 87.8 °F 73.0 °F 74% 30.00 in 10.0 mi SSW 8.1 mph - N/A   Clear
10:15 AM 84.4 °F 90.3 °F 72.3 °F 67% 30.00 in 10.0 mi SSW 10.4 mph - N/A   Clear
10:35 AM 86.0 °F 91.5 °F 71.2 °F 61% 30.00 in 10.0 mi SSW 10.4 mph - N/A   Clear
10:55 AM 87.6 °F 93.5 °F 71.1 °F 58% 29.99 in 10.0 mi SW 6.9 mph - N/A   Clear
11:15 AM 88.0 °F 92.9 °F 69.8 °F 55% 29.99 in 10.0 mi SSW 10.4 mph - N/A   Clear
11:35 AM 88.9 °F 93.8 °F 70.0 °F 53% 29.99 in 10.0 mi SW 9.2 mph - N/A   Clear
11:55 AM 90.0 °F 95.4 °F 70.2 °F 52% 29.99 in 10.0 mi SSW 9.2 mph - N/A   Clear
12:15 PM 90.1 °F 95.8 °F 70.2 °F 52% 29.98 in 10.0 mi SSW 10.4 mph - N/A   Clear
12:35 PM 91.4 °F 96.3 °F 69.3 °F 48% 29.98 in 10.0 mi SSW 8.1 mph - N/A   Clear
12:55 PM 91.6 °F 96.7 °F 69.4 °F 48% 29.97 in 10.0 mi South 5.8 mph - N/A   Clear
1:15 PM 93.0 °F 97.9 °F 69.1 °F 45% 29.97 in 10.0 mi SSW 8.1 mph - N/A   Clear
1:35 PM 93.4 °F 99.2 °F 69.6 °F 46% 29.97 in 10.0 mi SSW 10.4 mph 16.1 mph N/A   Clear
1:55 PM 93.2 °F 98.3 °F 69.3 °F 45% 29.96 in 10.0 mi South 9.2 mph - N/A   Clear
2:15 PM 93.6 °F 98.4 °F 68.9 °F 44% 29.95 in 10.0 mi South 10.4 mph - N/A   Clear
2:35 PM 94.1 °F 100.0 °F 69.8 °F 45% 29.95 in 10.0 mi SW 9.2 mph - N/A   Clear
2:55 PM 92.1 °F 97.7 °F 70.0 °F 48% 29.94 in 10.0 mi SW 9.2 mph - N/A   Clear
3:15 PM 93.2 °F 99.4 °F 70.3 °F 47% 29.94 in 10.0 mi SW 8.1 mph - N/A   Clear
3:35 PM 94.1 °F 99.5 °F 69.1 °F 44% 29.94 in 10.0 mi SW 8.1 mph - N/A   Clear
3:55 PM 93.2 °F 98.3 °F 68.7 °F 45% 29.94 in 10.0 mi SW 9.2 mph - N/A   Clear
4:15 PM 93.2 °F 97.7 °F 68.4 °F 44% 29.94 in 10.0 mi SSW 5.8 mph - N/A   Clear
4:35 PM 93.4 °F 97.0 °F 67.3 °F 42% 29.94 in 10.0 mi SSW 8.1 mph - N/A   Clear
4:55 PM 93.6 °F 97.9 °F 68.0 °F 43% 29.94 in 10.0 mi SSW 9.2 mph - N/A   Clear
5:15 PM 93.2 °F 97.2 °F 67.8 °F 43% 29.94 in 10.0 mi SSW 8.1 mph - N/A   Clear
5:35 PM 93.2 °F 98.3 °F 68.9 °F 45% 29.94 in 10.0 mi SSW 5.8 mph - N/A   Clear
5:55 PM 91.6 °F 96.2 °F 68.9 °F 47% 29.95 in 10.0 mi South 6.9 mph - N/A   Clear
6:15 PM 90.7 °F 96.9 °F 70.9 °F 52% 29.95 in 10.0 mi South 6.9 mph - N/A   Clear
6:35 PM 89.4 °F 96.3 °F 72.0 °F 56% 29.95 in 10.0 mi South 5.8 mph - N/A   Clear
6:55 PM 86.7 °F 93.3 °F 72.1 °F 62% 29.95 in 10.0 mi South 4.6 mph - N/A   Clear
7:15 PM 84.6 °F 90.7 °F 72.3 °F 67% 29.95 in 10.0 mi South 4.6 mph - N/A   Clear
7:35 PM 83.7 °F 89.2 °F 72.0 °F 68% 29.96 in 10.0 mi South 5.8 mph - N/A   Clear
7:55 PM 83.5 °F 88.8 °F 72.0 °F 68% 29.96 in 10.0 mi South 6.9 mph - N/A   Clear
8:15 PM 83.5 °F 88.5 °F 71.6 °F 67% 29.97 in 10.0 mi SSW 5.8 mph - N/A   Clear
8:35 PM 82.8 °F 87.7 °F 71.6 °F 69% 29.97 in 10.0 mi SSW 4.6 mph - N/A   Clear
8:55 PM 82.6 °F 87.3 °F 71.6 °F 69% 29.98 in 10.0 mi SSW 5.8 mph - N/A   Clear
9:15 PM 81.3 °F 85.4 °F 71.1 °F 71% 29.99 in 10.0 mi SSW 5.8 mph - N/A   Clear
9:35 PM 81.0 °F 84.9 °F 71.2 °F 72% 29.99 in 10.0 mi South 4.6 mph - N/A   Clear
9:55 PM 81.0 °F 85.1 °F 71.6 °F 73% 29.99 in 10.0 mi South 5.8 mph - N/A   Clear
10:15 PM 80.1 °F 83.6 °F 71.1 °F 74% 29.99 in 10.0 mi South 5.8 mph - N/A   Clear
10:35 PM 79.9 °F - 71.2 °F 75% 30.00 in 10.0 mi SSW 4.6 mph - N/A   Clear
10:55 PM 79.2 °F - 71.2 °F 77% 30.00 in 10.0 mi SSW 5.8 mph - N/A   Clear
11:15 PM 79.2 °F - 71.2 °F 77% 30.00 in 10.0 mi SSW 5.8 mph - N/A   Clear
11:35 PM 79.2 °F - 71.6 °F 78% 30.00 in 10.0 mi SSW 4.6 mph - N/A   Clear
11:55 PM 78.3 °F - 71.2 °F 79% 30.00 in 10.0 mi SSW 4.6 mph - N/A   Clear